Location: Unspecified
(0.0000°N, 0.0000°E)
Time: 23:59:09
(UTC+00:00)

RS-15 - Pass Details

Date: 23 February 2026
Orbit: 1894 x 2150 km, 64.8° (Epoch: 7 March)

Event Time Altitude Azimuth Distance (km) Brightness Sun altitude
Rises 22:33:10 0° 212° (SSW) 5,379 10.6 -63.3°
Reaches altitude 10° 22:36:35 10° 215° (SW) 4,351 10.0 -64.1°
Enters shadow 22:38:20 16° 218° (SW) 3,844 9.7 -64.5°
